DELTA 1 DEB, 42091

Orbit data source: Space-Track

DELTA 1 DEB, 42091 is space debris in SSO originally from a launch on Sun, 15 Dec 1968 UTC launched from the Air Force Western Test Range (AFWTR). Debris objects in space refer to the collection of defunct objects orbiting the Earth. Examples of debris include non-operational satellites, rocket bodies, and fragments generated from explosions, collisions, or faulty payload assembly.

Loading next visibility...
Identifier
42091, 1968-114T
Orbit
SSO
Country
Flag of USUS
Related business
Manufacturer
Aerojet
Mission
Spacecraft
Bus & Motor
Unknown
Mass
Unknown
Launch date (UTC)
1968-12-15 (57 years ago)
Launch vehicle
Unknown
Launch site
Air Force Western Test Range (AFWTR)
Object type
Payload
Rocket body
Debris
Shape & HBR
Unknown shape, 0.1 m
Radar Cross Section
Small (<0.1 m²)

Expand to show TLE details & history
Last TLE update: 1 week ago

TLE from 1 week ago
0 DELTA 1 DEB
1 42091U 68114T   25283.70557628  .00000016  00000-0  39480-3 0  9990
2 42091 101.4553 266.3291 0037237  62.5508 111.0568 12.47169539541014
Epoch: 2025-10-10T16:56Z
TLE epoch observation values (Epoch: 2025-10-10T16:56:01.790Z)
Latitude
5.80302°
Longitude
173.94833°
Altitude
1,488.978 km
Speed
7.115 km/s
True Right ascension
05h 50m 00s
True Declination
5° 46' 18"
Sunlit
Object was in daylight at epoch
Visualization orbit readout
Latitude
Unknown
Longitude
Unknown
Altitude
Unknown
Speed
Unknown
Apparent Right ascension
Unknown
Apparent Declination
Unknown
Sunlit
N/A
Visualization observer readout
Local Sidereal Time
04:25:12
Azimuth
Unknown
Elevation
Unknown
Doppler factor
Unknown
Orbital elements
Apogee altitude
1,503.128 km
Perigee altitude
1,444.651 km
Semi-major axis
7,852.027 km
Eccentricity
0.00372
Inclination
101.4553°
RAAN
266.3291°
Arg. of periapsis
62.5508°
True anomaly
111.45434°
Mean anomaly
111.0568°
Eccentric anomaly
111.25564°
Mean motion
3.1194 °/min
Orbital period
115.41 mins
BSTAR
0.0003948
Loading maneuver chart data...
Computing Atmospheric mass density...
Loading historical data...
Loading historical data...
Loading historical data...
Loading historical data...
Loading historical data...
Loading historical data...
Loading historical data...

Documentation

Showing up to 5 results
|